Previsão horária em Almazar

Hoje, 14 Junho, Segunda-feira

Tempo Temperatura Precipitação Vento Pressão Humidade
00:00 +25°C° 0 mm 3 m/s 729 mmHg 22%
01:00 +24°C° 0 mm 3 m/s 729 mmHg 22%
02:00 +22°C° 0 mm 3 m/s 729 mmHg 23%
03:00 +21°C° 0 mm 3 m/s 729 mmHg 23%
04:00 +21°C° 0 mm 2 m/s 729 mmHg 24%
05:00 +20°C° 0 mm 2 m/s 729 mmHg 25%
06:00 +21°C° 0 mm 2 m/s 729 mmHg 23%
07:00 +24°C° 0 mm 3 m/s 730 mmHg 21%
08:00 +26°C° 0 mm 3 m/s 730 mmHg 19%
09:00 +28°C° 0 mm 3 m/s 730 mmHg 17%
10:00 +29°C° 0 mm 3 m/s 729 mmHg 16%
11:00 +31°C° 0 mm 3 m/s 729 mmHg 15%
12:00 +33°C° 0 mm 3 m/s 729 mmHg 15%
13:00 +34°C° 0 mm 3 m/s 728 mmHg 14%
14:00 +35°C° 0 mm 3 m/s 728 mmHg 13%
15:00 +35°C° 0 mm 3 m/s 728 mmHg 13%
16:00 +35°C° 0 mm 3 m/s 728 mmHg 12%
17:00 +36°C° 0 mm 3 m/s 728 mmHg 11%
18:00 +33°C° 0 mm 3 m/s 727 mmHg 11%
19:00 +30°C° 0 mm 3 m/s 727 mmHg 12%
20:00 +28°C° 0 mm 2 m/s 727 mmHg 12%
21:00 +27°C° 0 mm 2 m/s 727 mmHg 13%
22:00 +26°C° 0 mm 2 m/s 727 mmHg 13%
23:00 +25°C° 0 mm 2 m/s 727 mmHg 14%

Amanhã, 15 Junho, Terça-feira

Tempo Temperatura Precipitação Vento Pressão Humidade
00:00 +24°C° 0 mm 2 m/s 727 mmHg 15%
01:00 +23°C° 0 mm 2 m/s 727 mmHg 16%
02:00 +21°C° 0 mm 3 m/s 727 mmHg 17%
03:00 +20°C° 0 mm 3 m/s 727 mmHg 19%
04:00 +20°C° 0 mm 3 m/s 728 mmHg 21%
05:00 +19°C° 0 mm 3 m/s 728 mmHg 23%
06:00 +21°C° 0 mm 3 m/s 728 mmHg 21%
07:00 +24°C° 0 mm 3 m/s 729 mmHg 19%
08:00 +26°C° 0 mm 3 m/s 729 mmHg 17%
09:00 +28°C° 0 mm 2 m/s 729 mmHg 16%
10:00 +29°C° 0 mm 2 m/s 729 mmHg 14%
11:00 +31°C° 0 mm 2 m/s 729 mmHg 13%
12:00 +32°C° 0 mm 2 m/s 728 mmHg 12%
13:00 +34°C° 0 mm 2 m/s 728 mmHg 11%
14:00 +36°C° 0 mm 2 m/s 727 mmHg 10%
15:00 +36°C° 0 mm 2 m/s 727 mmHg 10%
16:00 +36°C° 0 mm 2 m/s 727 mmHg 9%
17:00 +36°C° 0 mm 3 m/s 727 mmHg 8%
18:00 +34°C° 0 mm 2 m/s 727 mmHg 11%
19:00 +31°C° 0 mm 2 m/s 727 mmHg 13%
20:00 +28°C° 0 mm 1 m/s 726 mmHg 16%
21:00 +27°C° 0 mm 1 m/s 726 mmHg 16%
22:00 +27°C° 0 mm 1 m/s 726 mmHg 16%
23:00 +26°C° 0 mm 1 m/s 726 mmHg 16%

Depois de amanhã, 16 Junho, Quarta-feira

Tempo Temperatura Precipitação Vento Pressão Humidade
00:00 +25°C° 0 mm 1 m/s 726 mmHg 17%
01:00 +24°C° 0 mm 1 m/s 726 mmHg 19%
02:00 +23°C° 0 mm 1 m/s 726 mmHg 20%
03:00 +21°C° 0 mm 2 m/s 726 mmHg 20%
04:00 +21°C° 0 mm 2 m/s 727 mmHg 21%
05:00 +21°C° 0 mm 3 m/s 727 mmHg 21%
06:00 +24°C° 0 mm 3 m/s 728 mmHg 21%
07:00 +25°C° 0 mm 3 m/s 728 mmHg 21%
08:00 +27°C° 0 mm 3 m/s 729 mmHg 21%
09:00 +29°C° 0 mm 3 m/s 728 mmHg 19%
10:00 +31°C° 0 mm 3 m/s 728 mmHg 18%
11:00 +34°C° 0 mm 2 m/s 728 mmHg 16%
12:00 +35°C° 0 mm 2 m/s 728 mmHg 14%
13:00 +36°C° 0 mm 2 m/s 728 mmHg 13%
14:00 +37°C° 0 mm 2 m/s 727 mmHg 11%
15:00 +37°C° 0 mm 2 m/s 727 mmHg 11%
16:00 +37°C° 0 mm 2 m/s 727 mmHg 10%
17:00 +38°C° 0 mm 2 m/s 727 mmHg 10%
18:00 +35°C° 0 mm 2 m/s 727 mmHg 12%
19:00 +32°C° 0 mm 1 m/s 727 mmHg 14%
20:00 +27°C° 0 mm 0 m/s 726 mmHg 16%
21:00 +29°C° 0 mm 1 m/s 727 mmHg 16%
22:00 +28°C° 0 mm 2 m/s 727 mmHg 17%
23:00 +27°C° 0 mm 2 m/s 727 mmHg 17%

17 Junho, Quinta-feira

Tempo Temperatura Precipitação Vento Pressão Humidade
00:00 +26°C° 0 mm 2 m/s 727 mmHg 18%
01:00 +25°C° 0 mm 2 m/s 727 mmHg 20%
02:00 +24°C° 0 mm 2 m/s 727 mmHg 22%
03:00 +24°C° 0 mm 2 m/s 727 mmHg 22%
04:00 +24°C° 0 mm 2 m/s 727 mmHg 23%
05:00 +24°C° 0 mm 3 m/s 728 mmHg 24%
06:00 +26°C° 0 mm 3 m/s 728 mmHg 23%
07:00 +28°C° 0 mm 3 m/s 728 mmHg 21%
08:00 +29°C° 0 mm 3 m/s 729 mmHg 20%
09:00 +31°C° 0 mm 3 m/s 729 mmHg 18%
10:00 +34°C° 0 mm 3 m/s 728 mmHg 17%
11:00 +35°C° 0 mm 3 m/s 728 mmHg 15%
12:00 +36°C° 0 mm 3 m/s 728 mmHg 14%
13:00 +37°C° 0 mm 3 m/s 727 mmHg 13%
14:00 +39°C° 0 mm 3 m/s 727 mmHg 11%
15:00 +39°C° 0 mm 3 m/s 727 mmHg 11%
16:00 +40°C° 0 mm 4 m/s 727 mmHg 10%
17:00 +40°C° 0 mm 4 m/s 727 mmHg 10%
18:00 +36°C° 0 mm 3 m/s 727 mmHg 11%
19:00 +34°C° 0 mm 3 m/s 727 mmHg 13%
20:00 +30°C° 0 mm 2 m/s 727 mmHg 15%
21:00 +29°C° 0 mm 2 m/s 727 mmHg 15%
22:00 +29°C° 0 mm 2 m/s 727 mmHg 15%
23:00 +28°C° 0 mm 3 m/s 727 mmHg 15%

18 Junho, Sexta-feira

Tempo Temperatura Precipitação Vento Pressão Humidade
00:00 +27°C° 0 mm 2 m/s 727 mmHg 17%
01:00 +26°C° 0 mm 2 m/s 727 mmHg 20%
02:00 +25°C° 0 mm 1 m/s 727 mmHg 22%
03:00 +25°C° 0 mm 2 m/s 727 mmHg 23%
04:00 +24°C° 0 mm 2 m/s 727 mmHg 23%
05:00 +24°C° 0 mm 2 m/s 727 mmHg 24%
06:00 +26°C° 0 mm 3 m/s 727 mmHg 23%
07:00 +28°C° 0 mm 3 m/s 728 mmHg 21%
08:00 +30°C° 0 mm 3 m/s 728 mmHg 20%
09:00 +33°C° 0 mm 3 m/s 728 mmHg 18%
10:00 +35°C° 0 mm 4 m/s 728 mmHg 16%
11:00 +37°C° 0 mm 4 m/s 728 mmHg 14%
12:00 +38°C° 0 mm 4 m/s 728 mmHg 13%
13:00 +40°C° 0 mm 4 m/s 728 mmHg 12%
14:00 +41°C° 0 mm 5 m/s 728 mmHg 11%
15:00 +41°C° 0 mm 5 m/s 728 mmHg 10%
16:00 +40°C° 0 mm 5 m/s 728 mmHg 10%
17:00 +40°C° 0 mm 5 m/s 728 mmHg 10%
18:00 +37°C° 0 mm 4 m/s 728 mmHg 13%
19:00 +34°C° 0 mm 3 m/s 728 mmHg 15%
20:00 +30°C° 0 mm 2 m/s 728 mmHg 17%
21:00 +29°C° 0 mm 1 m/s 728 mmHg 18%
22:00 +28°C° 0 mm 1 m/s 728 mmHg 20%
23:00 +27°C° 0 mm 1 m/s 729 mmHg 21%

19 Junho, Sábado

Tempo Temperatura Precipitação Vento Pressão Humidade
00:00 +27°C° 0 mm 1 m/s 728 mmHg 20%
01:00 +27°C° 0 mm 1 m/s 728 mmHg 20%
02:00 +27°C° 0 mm 2 m/s 728 mmHg 20%
03:00 +26°C° 0 mm 1 m/s 728 mmHg 21%
04:00 +25°C° 0 mm 1 m/s 729 mmHg 22%
05:00 +24°C° 0 mm 1 m/s 729 mmHg 23%
06:00 +27°C° 0 mm 1 m/s 729 mmHg 21%
07:00 +30°C° 0 mm 1 m/s 730 mmHg 18%
08:00 +33°C° 0 mm 1 m/s 730 mmHg 15%
09:00 +35°C° 0 mm 2 m/s 730 mmHg 14%
10:00 +37°C° 0 mm 3 m/s 730 mmHg 12%
11:00 +40°C° 0 mm 4 m/s 730 mmHg 11%
12:00 +40°C° 0 mm 4 m/s 730 mmHg 11%
13:00 +41°C° 0 mm 5 m/s 729 mmHg 10%
14:00 +42°C° 0 mm 5 m/s 729 mmHg 10%
15:00 +40°C° 0 mm 6 m/s 729 mmHg 13%
16:00 +39°C° 0 mm 8 m/s 729 mmHg 17%
17:00 +37°C° 0 mm 10 m/s 729 mmHg 21%
18:00 +32°C° 1 mm 8 m/s 730 mmHg 39%
19:00 +27°C° 1 mm 6 m/s 731 mmHg 56%
20:00 +21°C° 1 mm 5 m/s 732 mmHg 74%
21:00 +22°C° 0.1 mm 4 m/s 732 mmHg 68%
22:00 +23°C° 0.1 mm 4 m/s 732 mmHg 63%
23:00 +25°C° 0.1 mm 3 m/s 731 mmHg 57%
Mostrar mais